VR2R-13 Weather Reports


Display with metric or nautical units.
time (UTC)temp
F
wind
direction
speed
MPH
gust
MPH
rain 1hr
in
rain 24hr
in
rain mn
in
humidity
%
barometer
mb
20200127124149 48 242 3.0 6.0 0.00 0.00 0.00 75 913.4
20200127123650 50 126 2.0 6.0 0.00 0.00 0.00 67 913.1
20200127123149 51 95 1.0 4.0 0.00 0.00 0.00 67 913.1
20200127122649 52 360 2.0 4.0 0.00 0.00 0.00 60 912.9
20200127122150 49 16 1.0 11.0 0.00 0.00 0.00 66 912.9
20200127121650 49 298 2.0 11.0 0.00 0.00 0.00 72 912.9
20200127121149 51 360 7.0 11.0 0.00 0.00 0.00 62 912.6
20200127120649 53 10 7.0 8.0 0.00 0.00 0.00 58 912.2
20200127120149 54 11 0.0 4.0 0.00 0.00 0.00 58 912.4
20200127115649 53 290 1.0 4.0 0.00 0.00 0.00 59 912.6
20200127115149 52 277 0.0 3.0 0.00 0.00 0.00 61 912.6
20200127114649 53 251 4.0 6.0 0.00 0.00 0.00 61 912.3
20200127114149 52 214 2.0 6.0 0.00 0.00 0.00 61 912.2
20200127113649 52 280 2.0 11.0 0.00 0.00 0.00 63 912.2
20200127113149 49 301 4.0 13.0 0.00 0.00 0.00 70 912.2
20200127112649 49 360 6.0 13.0 0.00 0.00 0.00 72 912.5
20200127112149 49 25 7.0 15.0 0.00 0.00 0.00 71 912.4
20200127111649 47 5 9.0 17.0 0.00 0.00 0.00 76 912.2
20200127111149 47 6 11.0 18.0 0.00 0.00 0.00 77 912.1
20200127110650 44 351 14.0 18.0 0.00 0.00 0.00 83 912.0
20200127110150 44 344 15.0 19.0 0.00 0.00 0.00 85 911.9
20200127105649 44 2 17.0 19.0 0.00 0.00 0.00 85 911.9
20200127105149 43 360 14.0 19.0 0.00 0.00 0.00 87 911.6
20200127104651 43 11 15.0 18.0 0.00 0.00 0.00 84 911.4
20200127104149 45 360 14.0 16.0 0.00 0.00 0.00 80 911.6
20200127103649 46 3 13.0 15.0 0.00 0.00 0.00 78 912.0
20200127103149 48 348 9.0 13.0 0.00 0.00 0.00 73 912.6
20200127102649 49 20 5.0 14.0 0.00 0.00 0.00 72 912.7
20200127102149 47 243 8.0 14.0 0.00 0.00 0.00 77 912.8
20200127101649 46 1 11.0 18.0 0.00 0.00 0.00 80 912.6
20200127101149 45 25 9.0 19.0 0.00 0.00 0.00 82 912.7
20200127100649 45 360 13.0 19.0 0.00 0.00 0.00 83 912.5
20200127100149 45 14 12.0 18.0 0.00 0.00 0.00 83 912.3
20200127095649 44 360 7.0 17.0 0.00 0.00 0.00 84 912.4
20200127095149 45 358 8.0 17.0 0.00 0.00 0.00 84 912.6
20200127094649 45 32 12.0 17.0 0.00 0.00 0.00 84 912.2
20200127094149 44 359 11.0 17.0 0.00 0.00 0.00 84 912.3
20200127093649 45 17 7.0 16.0 0.00 0.00 0.00 83 912.1
20200127093149 44 17 2.0 12.0 0.00 0.00 0.00 83 912.2
20200127092649 45 9 13.0 16.0 0.00 0.00 0.00 82 912.1
20200127092149 45 360 12.0 16.0 0.00 0.00 0.00 81 912.2
20200127091649 45 2 8.0 15.0 0.00 0.00 0.00 81 912.2
20200127090649 48 346 9.0 12.0 0.00 0.00 0.00 72 912.1
20200127090149 52 360 5.0 7.0 0.00 0.00 0.00 66 912.0
20200127085649 53 238 1.0 6.0 0.00 0.00 0.00 60 912.1
20200127085150 52 303 3.0 6.0 0.00 0.00 0.00 60 912.0
20200127084649 51 69 1.0 3.0 0.00 0.00 0.00 65 912.0
20200127083649 51 278 2.0 5.0 0.00 0.00 0.00 61 912.0
20200127083149 52 264 1.0 6.0 0.00 0.00 0.00 62 912.0
20200127082649 53 255 2.0 8.0 0.00 0.00 0.00 60 911.8
20200127082149 50 300 3.0 8.0 0.00 0.00 0.00 64 911.7
20200127081649 52 293 1.0 5.0 0.00 0.00 0.00 65 911.5
20200127081149 53 303 1.0 3.0 0.00 0.00 0.00 59 911.5
20200127080648 54 104 1.0 3.0 0.00 0.00 0.00 67 911.4
20200127080149 54 279 1.0 2.0 0.00 0.00 0.00 56 911.4
20200127075649 54 230 1.0 5.0 0.00 0.00 0.00 62 911.5
20200127074648 54 237 2.0 6.0 0.00 0.00 0.00 62 911.5
20200127074148 54 231 2.0 6.0 0.00 0.00 0.00 61 911.4
20200127073648 54 237 2.0 6.0 0.00 0.00 0.00 55 911.3
20200127073149 53 320 1.0 2.0 0.00 0.00 0.00 59 911.5
20200127072649 51 94 1.0 5.0 0.00 0.00 0.00 62 911.5
20200127072148 50 335 1.0 5.0 0.00 0.00 0.00 73 911.6
20200127071648 50 213 1.0 5.0 0.00 0.00 0.00 69 911.5
20200127071149 50 360 1.0 5.0 0.00 0.00 0.00 73 911.5
20200127070149 53 114 2.0 7.0 0.00 0.00 0.00 64 911.5
20200127065649 52 289 2.0 6.0 0.00 0.00 0.00 67 911.6
20200127065148 55 235 2.0 6.0 0.00 0.00 0.00 61 911.6
20200127064149 51 287 5.0 10.0 0.00 0.00 0.00 66 911.7
20200127063648 48 355 6.0 11.0 0.00 0.00 0.00 74 911.8
20200127063148 48 1 6.0 11.0 0.00 0.00 0.00 77 912.1
20200127061648 47 324 5.0 11.0 0.00 0.00 0.00 80 912.2
20200127061148 48 339 6.0 10.0 0.00 0.00 0.00 78 912.1
20200127060148 49 360 4.0 11.0 0.00 0.00 0.00 73 912.0
20200127055148 50 4 2.0 6.0 0.00 0.00 0.00 73 912.2
20200127054648 51 349 1.0 12.0 0.00 0.00 0.00 75 912.4
20200127054148 50 113 3.0 12.0 0.00 0.00 0.00 73 912.4
20200127053648 49 29 5.0 12.0 0.00 0.00 0.00 73 912.4
20200127053148 48 331 10.0 15.0 0.00 0.00 0.00 76 912.4
20200127052649 49 331 5.0 9.0 0.00 0.00 0.00 77 912.4
20200127052148 50 317 3.0 10.0 0.00 0.00 0.00 74 912.4
20200127051648 52 269 1.0 8.0 0.00 0.00 0.00 74 912.2
20200127051148 53 117 4.0 9.0 0.00 0.00 0.00 74 912.4
20200127050648 52 160 5.0 9.0 0.00 0.00 0.00 75 912.4
20200127045648 54 36 2.0 8.0 0.00 0.00 0.00 72 912.4
20200127045148 54 117 5.0 8.0 0.00 0.00 0.00 71 912.7
20200127044648 54 226 3.0 8.0 0.00 0.00 0.00 72 912.8
20200127044148 54 237 4.0 8.0 0.00 0.00 0.00 72 912.7
20200127043648 54 193 4.0 11.0 0.00 0.00 0.00 73 912.7
20200127043149 55 230 6.0 11.0 0.00 0.00 0.00 70 912.8
20200127042648 55 272 1.0 8.0 0.00 0.00 0.00 72 912.8
20200127042148 55 188 4.0 8.0 0.00 0.00 0.00 72 912.7
20200127041648 56 130 1.0 7.0 0.00 0.00 0.00 70 912.7
20200127041148 56 177 4.0 7.0 0.00 0.00 0.00 69 912.8
20200127040648 57 165 3.0 7.0 0.00 0.00 0.00 70 913.0
20200127040148 57 156 2.0 7.0 0.00 0.00 0.00 70 913.0
20200127035648 57 205 3.0 5.0 0.00 0.00 0.00 71 913.0
20200127035148 56 251 2.0 7.0 0.00 0.00 0.00 69 913.2
20200127034648 56 156 0.0 7.0 0.00 0.00 0.00 71 913.1
20200127034148 54 44 3.0 11.0 0.00 0.00 0.00 62 913.1
20200127033648 53 343 8.0 11.0 0.00 0.00 0.00 63 913.0
20200127033148 55 355 5.0 8.0 0.00 0.00 0.00 61 913.1
20200127032648 54 168 3.0 10.0 0.00 0.00 0.00 72 913.4
20200127032149 54 359 4.0 11.0 0.00 0.00 0.00 67 913.3
20200127031148 55 340 4.0 10.0 0.00 0.00 0.00 65 913.5
20200127030648 56 343 3.0 10.0 0.00 0.00 0.00 63 913.6
20200127025147 58 68 3.0 6.0 0.00 0.00 0.00 63 913.7
20200127024648 56 91 2.0 4.0 0.00 0.00 0.00 63 913.8
20200127024147 54 347 1.0 2.0 0.00 0.00 0.00 66 914.1
20200127023648 52 191 0.0 5.0 0.00 0.00 0.00 74 914.3
20200127023148 51 49 3.0 5.0 0.00 0.00 0.00 75 914.4
20200127022648 53 258 3.0 5.0 0.00 0.00 0.00 72 914.2
20200127022147 56 257 1.0 4.0 0.00 0.00 0.00 68 914.1
20200127021147 55 357 6.0 9.0 0.00 0.00 0.00 55 913.8
20200127020647 56 7 0.0 3.0 0.00 0.00 0.00 55 913.9
20200127020147 56 360 5.0 6.0 0.00 0.00 0.00 54 913.9
20200127015647 57 66 1.0 2.0 0.00 0.00 0.00 58 913.9
20200127015148 57 60 1.0 2.0 0.00 0.00 0.00 55 913.9
20200127014147 55 10 2.0 5.0 0.00 0.00 0.00 58 913.9
20200127013650 54 360 2.0 6.0 0.00 0.00 0.00 58 914.0
20200127013148 53 42 4.0 6.0 0.00 0.00 0.00 61 913.7
20200127012649 54 30 3.0 5.0 0.00 0.00 0.00 59 913.6
20200127011647 51 9 3.0 6.0 0.00 0.00 0.00 65 913.8
20200127011148 51 268 1.0 10.0 0.00 0.00 0.00 67 913.8
20200127010649 52 199 1.0 11.0 0.00 0.00 0.00 64 913.9
20200127010148 52 8 7.0 11.0 0.00 0.00 0.00 65 913.7
20200127005647 52 26 6.0 8.0 0.00 0.00 0.00 64 913.5
20200127005147 51 307 3.0 8.0 0.00 0.00 0.00 68 913.7
20200127004647 51 200 2.0 14.0 0.00 0.00 0.00 65 913.5
20200127004147 49 350 2.0 15.0 0.00 0.00 0.00 71 913.5
20200127003647 47 3 7.0 17.0 0.00 0.00 0.00 74 913.3
20200127003148 43 358 13.0 17.0 0.00 0.00 0.00 81 913.1
20200127002647 47 360 9.0 17.0 0.00 0.00 0.00 73 913.4
20200127002147 45 19 9.0 19.0 0.00 0.00 0.00 84 913.4
20200127001647 41 2 14.0 19.0 0.00 0.00 0.00 86 913.3
20200127001147 42 354 13.0 17.0 0.00 0.00 0.00 83 913.4
20200127000647 44 360 12.0 16.0 0.00 0.00 0.00 78 913.3
20200126235647 50 355 7.0 13.0 0.00 0.00 0.00 67 913.4
20200126235148 49 360 7.0 11.0 0.00 0.00 0.00 68 913.3
20200126234647 50 358 4.0 11.0 0.00 0.00 0.00 67 913.5
20200126234148 51 205 2.0 12.0 0.00 0.00 0.00 68 913.6
20200126233647 51 328 8.0 13.0 0.00 0.00 0.00 65 913.3
20200126233147 51 360 9.0 13.0 0.00 0.00 0.00 65 913.2
20200126232647 52 5 8.0 12.0 0.00 0.00 0.00 64 913.2
20200126232147 52 360 9.0 12.0 0.00 0.00 0.00 64 913.1
20200126231647 53 339 5.0 13.0 0.00 0.00 0.00 62 913.3
20200126231147 51 296 8.0 13.0 0.00 0.00 0.00 65 913.2
20200126230648 51 348 10.0 11.0 0.00 0.00 0.00 67 913.2
20200126225647 52 20 3.0 11.0 0.00 0.00 0.00 67 913.2
20200126225147 51 352 7.0 11.0 0.00 0.00 0.00 69 913.0
20200126224647 49 193 4.0 16.0 0.00 0.00 0.00 72 913.0
20200126224147 47 355 11.0 16.0 0.00 0.00 0.00 75 912.8
20200126223647 48 344 12.0 14.0 0.00 0.00 0.00 73 912.7
20200126223147 50 352 10.0 13.0 0.00 0.00 0.00 71 912.6
20200126222647 51 360 10.0 12.0 0.00 0.00 0.00 69 912.5
20200126222147 51 351 8.0 13.0 0.00 0.00 0.00 70 912.4
20200126221647 50 332 10.0 14.0 0.00 0.00 0.00 71 912.6
20200126221147 49 353 11.0 14.0 0.00 0.00 0.00 72 912.4
20200126220646 50 345 11.0 14.0 0.00 0.00 0.00 72 912.3
20200126220147 50 351 10.0 14.0 0.00 0.00 0.00 72 912.3
20200126215647 51 346 9.0 12.0 0.00 0.00 0.00 71 912.3
20200126215147 50 335 9.0 14.0 0.00 0.00 0.00 73 912.2
20200126214647 47 318 9.0 14.0 0.00 0.00 0.00 77 912.3
20200126214148 45 355 11.0 14.0 0.00 0.00 0.00 81 912.2
20200126213647 48 278 7.0 14.0 0.00 0.00 0.00 75 912.3
20200126212646 46 355 12.0 15.0 0.00 0.00 0.00 78 912.0
20200126212147 46 348 12.0 17.0 0.00 0.00 0.00 78 911.9
20200126211147 46 360 11.0 17.0 0.00 0.00 0.00 79 911.7
20200126210647 47 1 11.0 14.0 0.00 0.00 0.00 77 911.7
20200126210146 46 359 11.0 15.0 0.00 0.00 0.00 79 911.6
20200126205646 47 348 12.0 15.0 0.00 0.00 0.00 78 911.6
20200126204646 49 349 10.0 15.0 0.00 0.00 0.00 74 911.7
20200126204147 49 357 10.0 14.0 0.00 0.00 0.00 75 911.7
20200126203647 49 339 9.0 14.0 0.00 0.00 0.00 75 911.7
20200126203146 50 360 9.0 13.0 0.00 0.00 0.00 75 911.6
20200126202646 50 349 10.0 13.0 0.00 0.00 0.00 76 911.7
20200126202146 49 349 10.0 14.0 0.00 0.00 0.00 77 911.7
20200126201648 47 356 11.0 15.0 0.00 0.00 0.00 81 911.6
20200126201149 47 342 12.0 15.0 0.00 0.00 0.00 78 911.6
20200126200647 49 360 10.0 16.0 0.00 0.00 0.00 76 911.6
20200126200146 49 350 11.0 16.0 0.00 0.00 0.00 76 911.5
20200126195646 49 348 11.0 15.0 0.00 0.00 0.00 76 911.5
20200126195147 48 354 11.0 15.0 0.00 0.00 0.00 78 911.6
20200126194646 48 6 11.0 15.0 0.00 0.00 0.00 77 911.5
20200126194148 49 360 11.0 15.0 0.00 0.00 0.00 76 911.5
20200126193646 48 352 12.0 14.0 0.00 0.00 0.00 77 911.6
20200126193146 49 353 11.0 14.0 0.00 0.00 0.00 75 911.7
20200126192646 50 355 9.0 14.0 0.00 0.00 0.00 74 911.6
20200126192146 51 360 10.0 15.0 0.00 0.00 0.00 73 911.6
20200126191647 51 4 9.0 15.0 0.00 0.00 0.00 72 911.6
20200126191146 50 360 11.0 15.0 0.00 0.00 0.00 76 911.7
20200126190646 48 360 11.0 15.0 0.00 0.00 0.00 79 911.7
20200126190146 48 357 12.0 16.0 0.00 0.00 0.00 80 911.8
20200126185647 49 317 12.0 16.0 0.00 0.00 0.00 79 911.8
20200126185146 49 349 11.0 14.0 0.00 0.00 0.00 79 911.7
20200126184646 47 355 12.0 14.0 0.00 0.00 0.00 82 911.9
20200126184146 45 360 12.0 14.0 0.00 0.00 0.00 87 912.0
20200126183646 47 346 12.0 14.0 0.00 0.00 0.00 82 912.1
20200126183146 48 348 10.0 13.0 0.00 0.00 0.00 81 912.1
20200126182647 47 357 10.0 15.0 0.00 0.00 0.00 83 912.1
20200126182146 46 352 11.0 15.0 0.00 0.00 0.00 85 912.1
20200126181649 46 358 12.0 17.0 0.00 0.00 0.00 86 912.1
20200126181146 47 360 9.0 17.0 0.00 0.00 0.00 84 912.2
20200126180647 46 348 12.0 17.0 0.00 0.00 0.00 86 912.2
20200126180146 46 360 12.0 17.0 0.00 0.00 0.00 87 912.2
20200126175649 45 343 12.0 17.0 0.00 0.00 0.00 90 912.2
20200126175146 44 360 13.0 17.0 0.00 0.00 0.00 89 912.2
20200126174646 45 360 12.0 17.0 0.00 0.00 0.00 88 912.1
20200126174146 48 349 12.0 16.0 0.00 0.00 0.00 83 912.1
20200126173646 50 348 10.0 16.0 0.00 0.00 0.00 79 912.0
20200126173146 50 360 12.0 16.0 0.00 0.00 0.00 79 912.2
20200126172646 52 331 10.0 16.0 0.00 0.00 0.00 77 912.2
20200126172146 51 360 11.0 16.0 0.00 0.00 0.00 78 912.3
20200126171646 51 325 11.0 16.0 0.00 0.00 0.00 79 912.3
20200126171146 50 360 12.0 17.0 0.00 0.00 0.00 81 912.4
20200126170646 50 358 12.0 18.0 0.00 0.00 0.00 80 912.4
20200126170146 49 360 13.0 19.0 0.00 0.00 0.00 83 912.3
20200126165646 49 344 15.0 19.0 0.00 0.00 0.00 83 912.3
20200126165146 49 360 14.0 18.0 0.00 0.00 0.00 84 912.3
20200126164646 47 358 13.0 20.0 0.00 0.00 0.00 87 912.4
20200126164146 47 342 15.0 20.0 0.00 0.00 0.00 90 912.2
20200126163646 48 346 14.0 20.0 0.00 0.00 0.00 86 912.2
20200126163146 51 353 13.0 21.0 0.00 0.00 0.00 81 912.3
20200126162646 49 360 12.0 21.0 0.00 0.00 0.00 85 912.6
20200126162146 50 340 13.0 19.0 0.00 0.00 0.00 83 912.4
20200126161646 50 21 13.0 19.0 0.00 0.00 0.00 83 912.5
20200126161147 51 335 10.0 19.0 0.00 0.00 0.00 81 912.6
20200126160646 51 360 14.0 19.0 0.00 0.00 0.00 81 912.6
20200126160146 52 333 12.0 17.0 0.00 0.00 0.00 81 912.7
20200126155645 52 328 11.0 18.0 0.00 0.00 0.00 81 912.8
20200126155145 50 8 3.0 18.0 0.00 0.00 0.00 86 912.8
20200126154646 50 324 13.0 18.0 0.00 0.00 0.00 88 913.0
20200126154146 50 5 11.0 18.0 0.00 0.00 0.00 93 913.0
20200126153648 48 340 7.0 15.0 0.00 0.00 0.00 95 913.1
20200126153145 47 360 9.0 17.0 0.00 0.00 0.00 96 913.1
20200126152647 46 4 9.0 18.0 0.00 0.00 0.00 95 913.2
20200126152146 45 342 14.0 18.0 0.00 0.00 0.00 94 913.2
20200126151645 45 358 4.0 16.0 0.00 0.00 0.00 95 913.2
20200126151145 46 3 15.0 19.0 0.00 0.00 0.00 94 913.3
20200126150645 46 356 13.0 18.0 0.00 0.00 0.00 94 913.2
20200126150145 46 9 14.0 18.0 0.00 0.00 0.00 94 913.2
20200126145646 46 360 14.0 20.0 0.00 0.00 0.00 94 913.3
20200126145145 46 360 14.0 20.0 0.00 0.00 0.00 94 913.2
20200126144146 46 360 13.0 19.0 0.00 0.00 0.00 94 913.3
20200126143645 46 12 14.0 19.0 0.00 0.00 0.00 93 913.3
20200126143145 46 14 13.0 17.0 0.00 0.00 0.00 93 913.3
20200126142645 47 360 14.0 18.0 0.00 0.00 0.00 93 913.5
20200126142146 48 3 12.0 18.0 0.00 0.00 0.00 93 913.5
20200126141645 47 342 13.0 18.0 0.00 0.00 0.00 94 913.6
20200126141146 47 359 13.0 18.0 0.00 0.00 0.00 93 913.4
20200126140645 48 360 12.0 19.0 0.00 0.00 0.00 93 913.3
20200126140146 47 353 13.0 19.0 0.00 0.00 0.00 92 913.5
20200126135645 49 22 12.0 19.0 0.00 0.00 0.00 92 913.4
20200126135145 49 333 13.0 17.0 0.00 0.00 0.00 93 913.5
20200126134645 49 9 11.0 18.0 0.00 0.00 0.00 95 913.5
20200126134145 47 347 13.0 18.0 0.00 0.00 0.00 93 913.4
20200126133645 48 335 12.0 20.0 0.00 0.00 0.00 94 913.5
20200126133146 48 17 12.0 20.0 0.00 0.00 0.00 94 913.5
20200126132646 49 360 11.0 18.0 0.00 0.00 0.00 95 913.5